TimeMDT,TemperatureF,Dew PointF,Humidity,Sea Level PressureIn,VisibilityMPH,Wind Direction,Wind SpeedMPH,Gust SpeedMPH,PrecipitationIn,Events,Conditions,WindDirDegrees,DateUTC
12:53 AM,66.0,46.9,50,29.90,10.0,ESE,4.6,-,N/A,,Clear,120,2013-09-13 06:53:00
1:53 AM,60.1,46.9,62,29.90,10.0,Calm,Calm,-,N/A,,Clear,0,2013-09-13 07:53:00
2:53 AM,60.1,46.0,60,29.90,10.0,Calm,Calm,-,N/A,,Clear,0,2013-09-13 08:53:00
3:53 AM,60.1,46.0,60,29.89,10.0,West,3.5,-,N/A,,Clear,280,2013-09-13 09:53:00
4:53 AM,57.9,46.0,65,29.90,10.0,Calm,Calm,-,N/A,,Clear,0,2013-09-13 10:53:00
5:53 AM,57.0,46.0,67,29.89,10.0,Calm,Calm,-,N/A,,Clear,0,2013-09-13 11:53:00
6:53 AM,54.0,46.0,75,29.91,10.0,NNW,3.5,-,N/A,,Clear,330,2013-09-13 12:53:00
7:53 AM,54.0,46.9,77,29.92,10.0,Calm,Calm,-,N/A,,Clear,0,2013-09-13 13:53:00
8:53 AM,61.0,46.9,60,29.92,10.0,Calm,Calm,-,N/A,,Clear,0,2013-09-13 14:53:00
9:53 AM,64.9,48.0,54,29.91,10.0,Calm,Calm,-,N/A,,Clear,0,2013-09-13 15:53:00
10:53 AM,68.0,46.9,47,29.90,10.0,Calm,Calm,-,N/A,,Clear,0,2013-09-13 16:53:00
11:53 AM,73.0,48.0,41,29.87,10.0,Calm,Calm,-,N/A,,Clear,0,2013-09-13 17:53:00
12:53 PM,80.1,48.9,34,29.83,10.0,SSE,5.8,-,N/A,,Clear,160,2013-09-13 18:53:00
1:53 PM,84.0,48.9,29,29.80,10.0,WNW,3.5,-,N/A,,Clear,300,2013-09-13 19:53:00
2:53 PM,87.1,46.0,24,29.77,10.0,Variable,4.6,-,N/A,,Clear,0,2013-09-13 20:53:00
3:53 PM,89.1,41.0,19,29.75,10.0,North,13.8,24.2,N/A,,Clear,360,2013-09-13 21:53:00
4:53 PM,88.0,37.0,16,29.74,10.0,North,18.4,26.5,N/A,,Clear,360,2013-09-13 22:53:00
5:53 PM,86.0,42.1,21,29.75,10.0,North,15.0,26.5,N/A,,Clear,360,2013-09-13 23:53:00
6:53 PM,84.0,44.1,25,29.76,10.0,North,17.3,-,N/A,,Partly Cloudy,350,2013-09-14 00:53:00
7:53 PM,81.0,44.1,27,29.77,10.0,NNW,9.2,-,N/A,,Mostly Cloudy,330,2013-09-14 01:53:00
8:53 PM,80.1,45.0,29,29.77,10.0,NW,12.7,20.7,N/A,,Mostly Cloudy,320,2013-09-14 02:53:00
9:53 PM,78.1,45.0,31,29.78,10.0,WNW,9.2,-,N/A,,Scattered Clouds,300,2013-09-14 03:53:00
10:53 PM,73.9,46.0,37,29.82,10.0,South,6.9,-,N/A,,Overcast,170,2013-09-14 04:53:00
11:53 PM,73.0,48.9,42,29.83,10.0,SE,9.2,-,N/A,,Clear,130,2013-09-14 05:53:00